timestamp,surface_pressure_avg,surface_temp_avg,battery_voltage,lat,long
2021-01-19 00:09:01+00:00,263.363,3.2,12.73,47.84626,-54.09684
2021-01-19 00:19:01+00:00,261.3331,3.2,12.65,47.84626,-54.09684
2021-01-19 00:29:01+00:00,260.3247,3.2,12.65,47.84626,-54.09684
2021-01-19 00:39:01+00:00,261.2864,3.2,12.65,47.84626,-54.09684
2021-01-19 00:49:01+00:00,265.5298,3.2,12.65,47.84626,-54.09684
2021-01-19 00:59:01+00:00,268.0047,3.2,12.65,47.84626,-54.09684
2021-01-19 01:09:01+00:00,271.9747,3.2,12.65,47.84626,-54.09684
2021-01-19 01:19:01+00:00,272.4714,3.2,12.65,47.84626,-54.09684
2021-01-19 01:29:01+00:00,279.188,3.2,12.65,47.84626,-54.09684
2021-01-19 01:39:01+00:00,288.323,3.2,12.65,47.84626,-54.09684
2021-01-19 01:49:01+00:00,292.8414,3.2,12.65,47.84626,-54.09684
2021-01-19 01:59:01+00:00,292.2481,3.2,12.65,47.84626,-54.09684
2021-01-19 02:09:01+00:00,299.7596,3.2,12.65,47.84626,-54.09684
2021-01-19 02:19:01+00:00,305.9013,3.2,12.65,47.84626,-54.09684
2021-01-19 02:29:01+00:00,310.733,3.2,12.65,47.84626,-54.09684
2021-01-19 02:39:01+00:00,318.5396,3.2,12.65,47.84626,-54.09684
2021-01-19 02:49:01+00:00,323.8396,3.2,12.65,47.84626,-54.09684
2021-01-19 02:59:01+00:00,328.593,3.2,12.65,47.84626,-54.09684
2021-01-19 03:09:01+00:00,331.9847,3.2,12.65,47.84626,-54.09684
2021-01-19 03:19:01+00:00,335.548,3.2,12.65,47.84626,-54.09684
2021-01-19 03:29:01+00:00,337.48800000000006,3.2,12.65,47.84626,-54.09684
2021-01-19 03:39:01+00:00,341.8379,3.2,12.65,47.84626,-54.09684
2021-01-19 03:49:01+00:00,340.1013,3.2,12.65,47.84626,-54.09684
2021-01-19 03:59:01+00:00,338.6463,3.2,12.65,47.84626,-54.09684
2021-01-19 04:09:01+00:00,335.793,3.2,12.65,47.84626,-54.09684
2021-01-19 04:19:01+00:00,331.7896,3.2,12.65,47.84626,-54.09684
2021-01-19 04:29:01+00:00,330.1213,3.2,12.65,47.84626,-54.09684
2021-01-19 04:39:01+00:00,331.3496,3.2,12.65,47.84626,-54.09684
2021-01-19 04:49:01+00:00,325.2413,3.2,12.65,47.84626,-54.09684
2021-01-19 04:59:01+00:00,319.928,3.2,12.65,47.84626,-54.09684
2021-01-19 05:09:01+00:00,323.908,3.2,12.65,47.84626,-54.09684
2021-01-19 05:19:01+00:00,321.1547,3.2,12.65,47.84626,-54.09684
2021-01-19 05:29:01+00:00,318.388,3.2,12.65,47.84626,-54.09684
2021-01-19 05:39:01+00:00,319.028,3.2,12.65,47.84626,-54.09684
2021-01-19 05:49:01+00:00,322.9412,3.2,12.65,47.84626,-54.09684
2021-01-19 05:59:01+00:00,319.158,3.2,12.65,47.84626,-54.09684
2021-01-19 06:09:01+00:00,312.613,3.2,12.65,47.84626,-54.09684
2021-01-19 06:19:01+00:00,310.5613,3.2,12.65,47.84626,-54.09684
2021-01-19 06:29:01+00:00,307.7296,3.2,12.65,47.84626,-54.09684
2021-01-19 06:39:01+00:00,301.9714,3.2,12.65,47.84626,-54.09684
2021-01-19 06:49:01+00:00,290.7397,3.2,12.65,47.84626,-54.09684
2021-01-19 06:59:01+00:00,283.7397,3.2,12.65,47.84626,-54.09684
2021-01-19 07:09:01+00:00,276.2297,3.2,12.65,47.84626,-54.09684
2021-01-19 07:19:01+00:00,268.433,3.2,12.57,47.84626,-54.09684
2021-01-19 07:29:01+00:00,261.0181,3.2,12.57,47.84626,-54.09684
2021-01-19 07:39:01+00:00,254.6714,3.2,12.57,47.84626,-54.09684
2021-01-19 07:49:01+00:00,246.9798,3.2,12.57,47.84626,-54.09684
2021-01-19 07:59:01+00:00,245.933,3.2,12.57,47.84626,-54.09684
2021-01-19 08:09:01+00:00,238.5347,3.2,12.57,47.84626,-54.09684
2021-01-19 08:19:01+00:00,231.0448,3.2,12.57,47.84626,-54.09684
2021-01-19 08:29:01+00:00,228.8848,3.2,12.57,47.84626,-54.09684
2021-01-19 08:39:01+00:00,229.0898,3.2,12.57,47.84626,-54.09684
2021-01-19 08:49:01+00:00,221.2698,3.2,12.57,47.84626,-54.09684
2021-01-19 08:59:01+00:00,218.3598,3.2,12.57,47.84626,-54.09684
2021-01-19 09:09:01+00:00,217.2464,3.2,12.57,47.84626,-54.09684
2021-01-19 09:19:01+00:00,213.4631,3.2,12.57,47.84626,-54.09684
2021-01-19 09:29:01+00:00,214.0498,3.19,12.57,47.84626,-54.09684
2021-01-19 09:39:01+00:00,221.6898,3.19,12.57,47.84626,-54.09684
2021-01-19 09:49:01+00:00,221.3731,3.19,12.57,47.84626,-54.09684
2021-01-19 09:59:01+00:00,221.9881,3.19,12.57,47.84626,-54.09684
2021-01-19 10:09:01+00:00,230.6864,3.19,12.57,47.84626,-54.09684
2021-01-19 10:19:01+00:00,235.1214,3.1,12.57,47.84626,-54.09684
2021-01-19 10:29:01+00:00,228.0031,3.09,12.57,47.84626,-54.09684
2021-01-19 10:39:01+00:00,226.5831,3.0,12.57,47.84626,-54.09684
2021-01-19 10:49:01+00:00,237.7148,3.0,12.57,47.84626,-54.09684
2021-01-19 10:59:01+00:00,241.9531,3.0,12.57,47.84626,-54.09684
2021-01-19 11:09:01+00:00,235.6514,2.93,12.57,47.84626,-54.09684
2021-01-19 11:19:01+00:00,235.7298,2.9,12.57,47.84626,-54.09684
2021-01-19 11:29:01+00:00,249.7115,2.9,12.57,47.84626,-54.09684
2021-01-19 11:39:01+00:00,252.0231,2.9,12.57,47.84626,-54.09684
2021-01-19 11:49:01+00:00,245.1914,2.9,12.57,47.84626,-54.09684
2021-01-19 11:59:01+00:00,250.6597,2.94,12.57,47.84626,-54.09684
2021-01-19 12:09:01+00:00,259.6564,3.05,12.57,47.84626,-54.09684
2021-01-19 12:19:01+00:00,258.0398,3.09,12.57,47.84626,-54.09684
2021-01-19 12:29:01+00:00,254.5797,3.1,12.57,47.84626,-54.09684
2021-01-19 12:39:01+00:00,266.5064,3.1,12.57,47.84626,-54.09684
2021-01-19 12:49:01+00:00,270.4615,3.1,12.57,47.84626,-54.09684
2021-01-19 12:59:01+00:00,265.5531,3.1,12.57,47.84626,-54.09684
2021-01-19 13:09:01+00:00,270.4264,3.1,12.57,47.84626,-54.09684
2021-01-19 13:19:01+00:00,281.9081,3.1,12.97,47.84626,-54.09684
2021-01-19 13:29:01+00:00,285.118,3.11,12.97,47.84626,-54.09684
2021-01-19 13:39:01+00:00,290.0914,3.18,12.97,47.84626,-54.09684
2021-01-19 13:49:01+00:00,299.9514,3.2,12.97,47.84626,-54.09684
2021-01-19 13:59:01+00:00,306.3163,3.2,12.97,47.84626,-54.09684
2021-01-19 14:09:01+00:00,310.8996,3.2,12.97,47.84626,-54.09684
2021-01-19 14:19:01+00:00,320.498,3.2,13.44,47.84626,-54.09684
2021-01-19 14:29:01+00:00,327.0081,3.2,13.44,47.84626,-54.09684
2021-01-19 14:39:01+00:00,332.3414,3.2,13.44,47.84626,-54.09684
2021-01-19 14:49:01+00:00,340.7829,3.2,13.44,47.84626,-54.09684
2021-01-19 14:59:01+00:00,346.4796,3.2,13.44,47.84626,-54.09684
2021-01-19 15:09:01+00:00,344.7812,3.2,13.44,47.84626,-54.09684
2021-01-19 15:19:01+00:00,342.80800000000005,3.2,13.92,47.84626,-54.09684
2021-01-19 15:29:01+00:00,347.6546,3.2,13.92,47.84626,-54.09684
2021-01-19 15:39:01+00:00,344.9513,3.2,13.92,47.84626,-54.09684
2021-01-19 15:49:01+00:00,341.6113,3.2,13.92,47.84626,-54.09684
2021-01-19 15:59:01+00:00,344.5297,3.2,13.92,47.84626,-54.09684
2021-01-19 16:09:01+00:00,345.1531,3.21,13.92,47.84626,-54.09684
2021-01-19 16:19:01+00:00,341.7081,3.2,13.21,47.84626,-54.09684
2021-01-19 16:29:01+00:00,341.1796,3.21,13.21,47.84626,-54.09684
2021-01-19 16:39:01+00:00,346.773,3.23,13.21,47.84626,-54.09684
2021-01-19 16:49:01+00:00,341.0212,3.25,13.21,47.84626,-54.09684
2021-01-19 16:59:01+00:00,330.218,3.23,13.21,47.84626,-54.09684
2021-01-19 17:09:01+00:00,332.0696,3.23,13.21,47.84626,-54.09684
2021-01-19 17:19:01+00:00,329.2247,3.24,13.21,47.84626,-54.09684
2021-01-19 17:29:01+00:00,324.7196,3.26,13.21,47.84626,-54.09684
2021-01-19 17:39:01+00:00,324.5129,3.28,13.21,47.84626,-54.09684
2021-01-19 17:49:01+00:00,325.5063,3.29,13.21,47.84626,-54.09684
2021-01-19 17:59:01+00:00,318.1663,3.3,13.21,47.84626,-54.09684
2021-01-19 18:09:01+00:00,316.113,3.29,13.21,47.84626,-54.09684
2021-01-19 18:19:01+00:00,319.8547,3.29,13.05,47.84626,-54.09684
2021-01-19 18:29:01+00:00,310.7914,3.29,13.05,47.84626,-54.09684
2021-01-19 18:39:01+00:00,295.5247,3.29,13.05,47.84626,-54.09684
2021-01-19 18:49:01+00:00,293.4014,3.29,13.05,47.84626,-54.09684
2021-01-19 18:59:01+00:00,295.5614,3.29,13.05,47.84626,-54.09684
2021-01-19 19:09:01+00:00,284.473,3.3,13.05,47.84626,-54.09684
2021-01-19 19:19:01+00:00,272.8864,3.29,13.21,47.84626,-54.09684
2021-01-19 19:29:01+00:00,271.9264,3.29,13.21,47.84626,-54.09684
2021-01-19 19:39:01+00:00,268.9231,3.29,13.21,47.84626,-54.09684
2021-01-19 19:49:01+00:00,257.0614,3.29,13.21,47.84626,-54.09684
2021-01-19 19:59:01+00:00,255.8297,3.29,13.21,47.84626,-54.09684
2021-01-19 20:09:01+00:00,256.9247,3.29,13.21,47.84626,-54.09684
2021-01-19 20:19:01+00:00,242.0264,3.29,12.97,47.84626,-54.09684
2021-01-19 20:29:01+00:00,229.6747,3.28,12.97,47.84626,-54.09684
2021-01-19 20:39:01+00:00,237.1698,3.28,12.97,47.84626,-54.09684
2021-01-19 20:49:01+00:00,234.2364,3.29,12.97,47.84626,-54.09684
2021-01-19 20:59:01+00:00,220.1298,3.28,12.97,47.84626,-54.09684
2021-01-19 21:09:01+00:00,220.3381,3.29,12.97,47.84626,-54.09684
2021-01-19 21:19:01+00:00,224.9214,3.29,12.89,47.84626,-54.09684
2021-01-19 21:29:01+00:00,217.2581,3.29,12.89,47.84626,-54.09684
2021-01-19 21:39:01+00:00,218.7215,3.28,12.89,47.84626,-54.09684
2021-01-19 21:49:01+00:00,231.3948,3.28,12.89,47.84626,-54.09684
2021-01-19 21:59:01+00:00,229.8865,3.29,12.89,47.84626,-54.09684
2021-01-19 22:09:01+00:00,223.3781,3.29,12.89,47.84626,-54.09684
2021-01-19 22:19:01+00:00,229.298,3.28,12.81,47.84626,-54.09684
2021-01-19 22:29:01+00:00,238.5764,3.28,12.81,47.84626,-54.09684
2021-01-19 22:39:01+00:00,235.6115,3.24,12.81,47.84626,-54.09684
2021-01-19 22:49:01+00:00,236.1864,3.2,12.81,47.84626,-54.09684
2021-01-19 22:59:01+00:00,243.2447,3.2,12.81,47.84626,-54.09684
2021-01-19 23:09:01+00:00,249.1264,3.2,12.81,47.84626,-54.09684
2021-01-19 23:19:01+00:00,254.3065,3.2,12.81,47.84626,-54.09684
2021-01-19 23:29:01+00:00,256.4914,3.2,12.81,47.84626,-54.09684
2021-01-19 23:39:01+00:00,255.3615,3.2,12.81,47.84626,-54.09684
2021-01-19 23:49:01+00:00,249.6014,3.19,12.81,47.84626,-54.09684
2021-01-19 23:59:01+00:00,249.9865,3.19,12.81,47.84626,-54.09684
